Time,TemperatureF,DewpointF,PressureIn,WindDirection,WindDirectionDegrees,WindSpeedMPH,WindSpeedGustMPH,Humidity,HourlyPrecipIn,Conditions,Clouds,dailyrainin,SoftwareType,DateUTC
2013-04-11 00:02:00,17.0,4.0,-100.00,SE,135,1.0,6.0,57,-99.99,,,-99.99,,2013-04-11 08:02:00,
2013-04-11 00:12:00,17.0,4.0,-100.00,SE,135,1.0,6.0,57,-99.99,,,-99.99,,2013-04-11 08:12:00,
2013-04-11 00:22:00,16.0,3.0,-100.00,WSW,250,4.0,7.0,57,-99.99,,,-99.99,,2013-04-11 08:22:00,
2013-04-11 00:33:00,16.0,3.0,-100.00,WSW,250,4.0,7.0,57,-99.99,,,-99.99,,2013-04-11 08:33:00,
2013-04-11 00:42:00,16.0,3.0,-100.00,WSW,250,4.0,7.0,57,-99.99,,,-99.99,,2013-04-11 08:42:00,
2013-04-11 00:52:00,14.0,2.0,-100.00,East,85,3.0,6.0,58,-99.99,,,-99.99,,2013-04-11 08:52:00,
2013-04-11 01:01:00,14.0,2.0,-100.00,East,85,3.0,6.0,58,-99.99,,,-99.99,,2013-04-11 09:01:00,
2013-04-11 01:12:00,14.0,2.0,-100.00,East,85,3.0,6.0,58,-99.99,,,-99.99,,2013-04-11 09:12:00,
2013-04-11 01:22:00,15.0,3.0,-100.00,East,80,2.0,5.0,59,-99.99,,,-99.99,,2013-04-11 09:22:00,
2013-04-11 01:32:00,15.0,3.0,-100.00,East,80,2.0,5.0,59,-99.99,,,-99.99,,2013-04-11 09:32:00,
2013-04-11 01:42:00,15.0,3.0,-100.00,East,80,2.0,5.0,59,-99.99,,,-99.99,,2013-04-11 09:42:00,
2013-04-11 01:52:00,15.0,5.0,-100.00,ESE,120,2.0,4.0,63,-99.99,,,-99.99,,2013-04-11 09:52:00,
2013-04-11 02:02:00,15.0,5.0,-100.00,ESE,120,2.0,4.0,63,-99.99,,,-99.99,,2013-04-11 10:02:00,
2013-04-11 02:12:00,15.0,5.0,-100.00,ESE,120,2.0,4.0,63,-99.99,,,-99.99,,2013-04-11 10:12:00,
2013-04-11 02:22:00,15.0,6.0,-100.00,East,100,4.0,7.0,66,-99.99,,,-99.99,,2013-04-11 10:22:00,
2013-04-11 02:32:00,15.0,6.0,-100.00,East,100,4.0,7.0,66,-99.99,,,-99.99,,2013-04-11 10:32:00,
2013-04-11 02:42:00,15.0,6.0,-100.00,East,100,4.0,7.0,66,-99.99,,,-99.99,,2013-04-11 10:42:00,
2013-04-11 02:52:00,14.0,6.0,-100.00,East,100,4.0,6.0,71,-99.99,,,-99.99,,2013-04-11 10:52:00,
2013-04-11 03:02:00,14.0,6.0,-100.00,East,100,4.0,6.0,71,-99.99,,,-99.99,,2013-04-11 11:02:00,
2013-04-11 03:12:00,14.0,6.0,-100.00,East,100,4.0,6.0,71,-99.99,,,-99.99,,2013-04-11 11:12:00,
2013-04-11 03:22:00,13.0,6.0,-100.00,East,85,4.0,7.0,74,-99.99,,,-99.99,,2013-04-11 11:22:00,
2013-04-11 03:31:00,13.0,6.0,-100.00,East,85,4.0,7.0,74,-99.99,,,-99.99,,2013-04-11 11:31:00,
2013-04-11 03:43:00,13.0,6.0,-100.00,East,85,4.0,7.0,74,-99.99,,,-99.99,,2013-04-11 11:43:00,
2013-04-11 03:52:00,13.0,7.0,-100.00,ESE,105,5.0,7.0,74,-99.99,,,-99.99,,2013-04-11 11:52:00,
2013-04-11 04:01:00,13.0,7.0,-100.00,ESE,105,5.0,7.0,74,-99.99,,,-99.99,,2013-04-11 12:01:00,
2013-04-11 04:12:00,13.0,7.0,-100.00,ESE,105,5.0,7.0,74,-99.99,,,-99.99,,2013-04-11 12:12:00,
2013-04-11 04:22:00,12.0,6.0,-100.00,ESE,105,4.0,7.0,75,-99.99,,,-99.99,,2013-04-11 12:22:00,
2013-04-11 04:32:00,12.0,6.0,-100.00,ESE,105,4.0,7.0,75,-99.99,,,-99.99,,2013-04-11 12:32:00,
2013-04-11 04:43:00,12.0,6.0,-100.00,ESE,105,4.0,7.0,75,-99.99,,,-99.99,,2013-04-11 12:43:00,
2013-04-11 04:52:00,11.0,4.0,-100.00,North,-999,-999.0,-999.0,74,-99.99,,,-99.99,,2013-04-11 12:52:00,
2013-04-11 05:02:00,11.0,4.0,-100.00,North,-999,-999.0,-999.0,74,-99.99,,,-99.99,,2013-04-11 13:02:00,
2013-04-11 05:12:00,11.0,4.0,-100.00,North,-999,-999.0,-999.0,74,-99.99,,,-99.99,,2013-04-11 13:12:00,
2013-04-11 05:22:00,10.0,4.0,-100.00,East,90,3.0,7.0,74,-99.99,,,-99.99,,2013-04-11 13:22:00,
2013-04-11 05:32:00,10.0,4.0,-100.00,East,90,3.0,7.0,74,-99.99,,,-99.99,,2013-04-11 13:32:00,
2013-04-11 05:42:00,10.0,4.0,-100.00,East,90,3.0,7.0,74,-99.99,,,-99.99,,2013-04-11 13:42:00,
2013-04-11 05:52:00,9.0,3.0,-100.00,East,95,6.0,7.0,75,-99.99,,,-99.99,,2013-04-11 13:52:00,
2013-04-11 06:02:00,9.0,3.0,-100.00,East,95,6.0,7.0,75,-99.99,,,-99.99,,2013-04-11 14:02:00,
2013-04-11 06:12:00,9.0,3.0,-100.00,East,95,6.0,7.0,75,-99.99,,,-99.99,,2013-04-11 14:12:00,
2013-04-11 06:22:00,8.0,2.0,-100.00,East,100,5.0,6.0,76,-99.99,,,-99.99,,2013-04-11 14:22:00,
2013-04-11 06:33:00,8.0,2.0,-100.00,East,100,5.0,6.0,76,-99.99,,,-99.99,,2013-04-11 14:33:00,
2013-04-11 06:42:00,8.0,2.0,-100.00,East,100,5.0,6.0,76,-99.99,,,-99.99,,2013-04-11 14:42:00,
2013-04-11 06:52:00,7.0,2.0,-100.00,East,100,4.0,6.0,78,-99.99,,,-99.99,,2013-04-11 14:52:00,
2013-04-11 07:02:00,7.0,2.0,-100.00,East,100,4.0,6.0,78,-99.99,,,-99.99,,2013-04-11 15:02:00,
2013-04-11 07:12:00,7.0,2.0,-100.00,East,100,4.0,6.0,78,-99.99,,,-99.99,,2013-04-11 15:12:00,
2013-04-11 07:22:00,6.0,1.0,-100.00,East,90,3.0,6.0,80,-99.99,,,-99.99,,2013-04-11 15:22:00,
2013-04-11 07:32:00,6.0,1.0,-100.00,East,90,3.0,6.0,80,-99.99,,,-99.99,,2013-04-11 15:32:00,
2013-04-11 07:43:00,6.0,1.0,-100.00,East,90,3.0,6.0,80,-99.99,,,-99.99,,2013-04-11 15:43:00,
2013-04-11 07:53:00,5.0,0.0,-100.00,East,90,4.0,4.0,81,-99.99,,,-99.99,,2013-04-11 15:53:00,
2013-04-11 08:02:00,5.0,0.0,-100.00,East,90,4.0,4.0,81,-99.99,,,-99.99,,2013-04-11 16:02:00,
2013-04-11 08:12:00,5.0,0.0,-100.00,East,90,4.0,4.0,81,-99.99,,,-99.99,,2013-04-11 16:12:00,
2013-04-11 08:22:00,5.0,1.0,-100.00,East,90,2.0,5.0,82,-99.99,,,-99.99,,2013-04-11 16:22:00,
2013-04-11 08:32:00,5.0,1.0,-100.00,East,90,2.0,5.0,82,-99.99,,,-99.99,,2013-04-11 16:32:00,
2013-04-11 08:42:00,5.0,1.0,-100.00,East,90,2.0,5.0,82,-99.99,,,-99.99,,2013-04-11 16:42:00,
2013-04-11 08:52:00,5.0,1.0,-100.00,East,95,3.0,6.0,82,-99.99,,,-99.99,,2013-04-11 16:52:00,
2013-04-11 09:01:00,5.0,1.0,-100.00,East,95,3.0,6.0,82,-99.99,,,-99.99,,2013-04-11 17:01:00,
2013-04-11 09:12:00,5.0,1.0,-100.00,East,95,3.0,6.0,82,-99.99,,,-99.99,,2013-04-11 17:12:00,
2013-04-11 09:22:00,8.0,3.0,-100.00,East,95,4.0,5.0,80,-99.99,,,-99.99,,2013-04-11 17:22:00,
2013-04-11 09:32:00,8.0,3.0,-100.00,East,95,4.0,5.0,80,-99.99,,,-99.99,,2013-04-11 17:32:00,
2013-04-11 09:43:00,8.0,3.0,-100.00,East,95,4.0,5.0,80,-99.99,,,-99.99,,2013-04-11 17:43:00,
2013-04-11 09:52:00,11.0,4.0,-100.00,East,95,4.0,4.0,74,-99.99,,,-99.99,,2013-04-11 17:52:00,
2013-04-11 10:02:00,11.0,4.0,-100.00,East,95,4.0,4.0,74,-99.99,,,-99.99,,2013-04-11 18:02:00,
2013-04-11 10:13:00,11.0,4.0,-100.00,East,95,4.0,4.0,74,-99.99,,,-99.99,,2013-04-11 18:13:00,
2013-04-11 10:22:00,16.0,8.0,-100.00,East,100,1.0,4.0,69,-99.99,,,-99.99,,2013-04-11 18:22:00,
2013-04-11 10:32:00,16.0,8.0,-100.00,East,100,1.0,4.0,69,-99.99,,,-99.99,,2013-04-11 18:32:00,
2013-04-11 10:43:00,16.0,8.0,-100.00,East,100,1.0,4.0,69,-99.99,,,-99.99,,2013-04-11 18:43:00,
2013-04-11 10:53:00,21.0,10.0,-100.00,North,5,3.0,8.0,63,-99.99,,,-99.99,,2013-04-11 18:53:00,
2013-04-11 11:02:00,21.0,10.0,-100.00,North,5,3.0,8.0,63,-99.99,,,-99.99,,2013-04-11 19:02:00,
2013-04-11 11:13:00,21.0,10.0,-100.00,North,5,3.0,8.0,63,-99.99,,,-99.99,,2013-04-11 19:13:00,
2013-04-11 11:22:00,21.0,10.0,-100.00,North,0,4.0,11.0,63,-99.99,,,-99.99,,2013-04-11 19:22:00,
2013-04-11 11:32:00,21.0,10.0,-100.00,North,0,4.0,11.0,63,-99.99,,,-99.99,,2013-04-11 19:32:00,
2013-04-11 11:43:00,21.0,10.0,-100.00,North,0,4.0,11.0,63,-99.99,,,-99.99,,2013-04-11 19:43:00,
2013-04-11 11:53:00,21.0,10.0,-100.00,NNW,340,7.0,15.0,62,-99.99,,,-99.99,,2013-04-11 19:53:00,
2013-04-11 12:02:00,21.0,10.0,-100.00,NNW,340,7.0,15.0,62,-99.99,,,-99.99,,2013-04-11 20:02:00,
2013-04-11 12:12:00,21.0,10.0,-100.00,NNW,340,7.0,15.0,62,-99.99,,,-99.99,,2013-04-11 20:12:00,
2013-04-11 12:21:00,21.0,10.0,-100.00,NW,325,6.0,14.0,63,-99.99,,,-99.99,,2013-04-11 20:21:00,
2013-04-11 12:32:00,21.0,10.0,-100.00,NW,325,6.0,14.0,63,-99.99,,,-99.99,,2013-04-11 20:32:00,
2013-04-11 12:42:00,21.0,10.0,-100.00,NW,325,6.0,14.0,63,-99.99,,,-99.99,,2013-04-11 20:42:00,
2013-04-11 12:52:00,22.0,11.0,-100.00,North,355,4.0,11.0,62,-99.99,,,-99.99,,2013-04-11 20:52:00,
2013-04-11 13:02:00,22.0,11.0,-100.00,North,355,4.0,11.0,62,-99.99,,,-99.99,,2013-04-11 21:02:00,
2013-04-11 13:12:00,22.0,11.0,-100.00,North,355,4.0,11.0,62,-99.99,,,-99.99,,2013-04-11 21:12:00,
2013-04-11 13:22:00,22.0,11.0,-100.00,NNW,330,7.0,16.0,60,-99.99,,,-99.99,,2013-04-11 21:22:00,
2013-04-11 13:32:00,22.0,11.0,-100.00,NNW,330,7.0,16.0,60,-99.99,,,-99.99,,2013-04-11 21:32:00,
2013-04-11 13:43:00,22.0,11.0,-100.00,NNW,330,7.0,16.0,60,-99.99,,,-99.99,,2013-04-11 21:43:00,
2013-04-11 13:53:00,23.0,12.0,-100.00,NNW,340,8.0,17.0,63,-99.99,,,-99.99,,2013-04-11 21:53:00,
2013-04-11 14:02:00,23.0,12.0,-100.00,NNW,340,8.0,17.0,63,-99.99,,,-99.99,,2013-04-11 22:02:00,
2013-04-11 14:13:00,23.0,12.0,-100.00,NNW,340,8.0,17.0,63,-99.99,,,-99.99,,2013-04-11 22:13:00,
2013-04-11 14:22:00,23.0,12.0,-100.00,North,355,6.0,17.0,63,-99.99,,,-99.99,,2013-04-11 22:22:00,
2013-04-11 14:32:00,23.0,12.0,-100.00,North,355,6.0,17.0,63,-99.99,,,-99.99,,2013-04-11 22:32:00,
2013-04-11 14:44:00,23.0,12.0,-100.00,North,355,6.0,17.0,63,-99.99,,,-99.99,,2013-04-11 22:44:00,
2013-04-11 14:53:00,23.0,12.0,-100.00,NNW,340,6.0,21.0,64,-99.99,,,-99.99,,2013-04-11 22:53:00,
2013-04-11 15:02:00,23.0,12.0,-100.00,NNW,340,6.0,21.0,64,-99.99,,,-99.99,,2013-04-11 23:02:00,
2013-04-11 15:12:00,23.0,12.0,-100.00,NNW,340,6.0,21.0,64,-99.99,,,-99.99,,2013-04-11 23:12:00,
2013-04-11 15:22:00,23.0,12.0,-100.00,NW,325,7.0,14.0,63,-99.99,,,-99.99,,2013-04-11 23:22:00,
2013-04-11 15:32:00,23.0,12.0,-100.00,NW,325,7.0,14.0,63,-99.99,,,-99.99,,2013-04-11 23:32:00,
2013-04-11 15:43:00,23.0,12.0,-100.00,NW,325,7.0,14.0,63,-99.99,,,-99.99,,2013-04-11 23:43:00,
2013-04-11 15:53:00,24.0,12.0,-100.00,NNW,335,9.0,15.0,61,-99.99,,,-99.99,,2013-04-11 23:53:00,
2013-04-11 16:02:00,24.0,12.0,-100.00,NNW,335,9.0,15.0,61,-99.99,,,-99.99,,2013-04-12 00:02:00,
2013-04-11 16:12:00,24.0,12.0,-100.00,NNW,335,9.0,15.0,61,-99.99,,,-99.99,,2013-04-12 00:12:00,
2013-04-11 16:22:00,24.0,12.0,-100.00,NW,305,6.0,14.0,62,-99.99,,,-99.99,,2013-04-12 00:22:00,
2013-04-11 16:32:00,24.0,12.0,-100.00,NW,305,6.0,14.0,62,-99.99,,,-99.99,,2013-04-12 00:32:00,
2013-04-11 16:43:00,24.0,12.0,-100.00,NW,305,6.0,14.0,62,-99.99,,,-99.99,,2013-04-12 00:43:00,
2013-04-11 16:52:00,24.0,11.0,-100.00,North,355,7.0,16.0,60,-99.99,,,-99.99,,2013-04-12 00:52:00,
2013-04-11 17:02:00,24.0,11.0,-100.00,North,355,7.0,16.0,60,-99.99,,,-99.99,,2013-04-12 01:02:00,
2013-04-11 17:12:00,24.0,11.0,-100.00,North,355,7.0,16.0,60,-99.99,,,-99.99,,2013-04-12 01:12:00,
2013-04-11 17:22:00,23.0,12.0,-100.00,NNW,345,11.0,17.0,62,-99.99,,,-99.99,,2013-04-12 01:22:00,
2013-04-11 17:32:00,23.0,12.0,-100.00,NNW,345,11.0,17.0,62,-99.99,,,-99.99,,2013-04-12 01:32:00,
2013-04-11 17:42:00,23.0,12.0,-100.00,NNW,345,11.0,17.0,62,-99.99,,,-99.99,,2013-04-12 01:42:00,
2013-04-11 17:52:00,24.0,12.0,-100.00,NNW,330,7.0,14.0,61,-99.99,,,-99.99,,2013-04-12 01:52:00,
2013-04-11 18:02:00,24.0,12.0,-100.00,NNW,330,7.0,14.0,61,-99.99,,,-99.99,,2013-04-12 02:02:00,
2013-04-11 18:12:00,24.0,12.0,-100.00,NNW,330,7.0,14.0,61,-99.99,,,-99.99,,2013-04-12 02:12:00,
2013-04-11 18:22:00,23.0,11.0,-100.00,NW,305,7.0,18.0,58,-99.99,,,-99.99,,2013-04-12 02:22:00,
2013-04-11 18:32:00,23.0,11.0,-100.00,NW,305,7.0,18.0,58,-99.99,,,-99.99,,2013-04-12 02:32:00,
2013-04-11 18:42:00,23.0,11.0,-100.00,NW,305,7.0,18.0,58,-99.99,,,-99.99,,2013-04-12 02:42:00,
2013-04-11 18:52:00,24.0,10.0,-100.00,North,0,4.0,14.0,55,-99.99,,,-99.99,,2013-04-12 02:52:00,
2013-04-11 19:01:00,24.0,10.0,-100.00,North,0,4.0,14.0,55,-99.99,,,-99.99,,2013-04-12 03:01:00,
2013-04-11 19:12:00,24.0,10.0,-100.00,North,0,4.0,14.0,55,-99.99,,,-99.99,,2013-04-12 03:12:00,
2013-04-11 19:22:00,24.0,8.0,-100.00,North,0,6.0,17.0,50,-99.99,,,-99.99,,2013-04-12 03:22:00,
2013-04-11 19:32:00,24.0,8.0,-100.00,North,0,6.0,17.0,50,-99.99,,,-99.99,,2013-04-12 03:32:00,
2013-04-11 19:43:00,24.0,8.0,-100.00,North,0,6.0,17.0,50,-99.99,,,-99.99,,2013-04-12 03:43:00,
2013-04-11 19:53:00,24.0,9.0,-100.00,North,0,6.0,17.0,54,-99.99,,,-99.99,,2013-04-12 03:53:00,
2013-04-11 20:02:00,24.0,9.0,-100.00,North,0,6.0,17.0,54,-99.99,,,-99.99,,2013-04-12 04:02:00,
2013-04-11 20:13:00,24.0,9.0,-100.00,North,0,6.0,17.0,54,-99.99,,,-99.99,,2013-04-12 04:13:00,
2013-04-11 20:22:00,23.0,9.0,-100.00,NNW,345,7.0,14.0,56,-99.99,,,-99.99,,2013-04-12 04:22:00,
2013-04-11 20:33:00,23.0,9.0,-100.00,NNW,345,7.0,14.0,56,-99.99,,,-99.99,,2013-04-12 04:33:00,
2013-04-11 20:43:00,23.0,9.0,-100.00,NNW,345,7.0,14.0,56,-99.99,,,-99.99,,2013-04-12 04:43:00,
2013-04-11 20:52:00,23.0,10.0,-100.00,North,350,6.0,13.0,57,-99.99,,,-99.99,,2013-04-12 04:52:00,
2013-04-11 21:02:00,23.0,10.0,-100.00,North,350,6.0,13.0,57,-99.99,,,-99.99,,2013-04-12 05:02:00,
2013-04-11 21:12:00,23.0,10.0,-100.00,North,350,6.0,13.0,57,-99.99,,,-99.99,,2013-04-12 05:12:00,
2013-04-11 21:22:00,22.0,9.0,-100.00,NNW,335,6.0,12.0,58,-99.99,,,-99.99,,2013-04-12 05:22:00,
2013-04-11 21:32:00,22.0,9.0,-100.00,NNW,335,6.0,12.0,58,-99.99,,,-99.99,,2013-04-12 05:32:00,
2013-04-11 21:42:00,22.0,9.0,-100.00,NNW,335,6.0,12.0,58,-99.99,,,-99.99,,2013-04-12 05:42:00,
2013-04-11 21:52:00,21.0,8.0,-100.00,North,10,2.0,7.0,57,-99.99,,,-99.99,,2013-04-12 05:52:00,
2013-04-11 22:02:00,21.0,8.0,-100.00,North,10,2.0,7.0,57,-99.99,,,-99.99,,2013-04-12 06:02:00,
2013-04-11 22:12:00,21.0,8.0,-100.00,North,10,2.0,7.0,57,-99.99,,,-99.99,,2013-04-12 06:12:00,
2013-04-11 22:22:00,21.0,8.0,-100.00,NW,325,1.0,7.0,58,-99.99,,,-99.99,,2013-04-12 06:22:00,
2013-04-11 22:32:00,21.0,8.0,-100.00,NW,325,1.0,7.0,58,-99.99,,,-99.99,,2013-04-12 06:32:00,
2013-04-11 22:42:00,21.0,8.0,-100.00,NW,325,1.0,7.0,58,-99.99,,,-99.99,,2013-04-12 06:42:00,
2013-04-11 22:52:00,22.0,9.0,-100.00,North,0,5.0,10.0,58,-99.99,,,-99.99,,2013-04-12 06:52:00,
2013-04-11 23:01:00,22.0,9.0,-100.00,North,0,5.0,10.0,58,-99.99,,,-99.99,,2013-04-12 07:01:00,
2013-04-11 23:11:00,22.0,9.0,-100.00,North,0,5.0,10.0,58,-99.99,,,-99.99,,2013-04-12 07:11:00,
2013-04-11 23:21:00,22.0,9.0,-100.00,North,0,2.0,12.0,56,-99.99,,,-99.99,,2013-04-12 07:21:00,
2013-04-11 23:32:00,22.0,9.0,-100.00,North,0,2.0,12.0,56,-99.99,,,-99.99,,2013-04-12 07:32:00,
2013-04-11 23:42:00,22.0,9.0,-100.00,North,0,2.0,12.0,56,-99.99,,,-99.99,,2013-04-12 07:42:00,
2013-04-11 23:52:00,22.0,9.0,-100.00,NW,310,6.0,16.0,56,-99.99,,,-99.99,,2013-04-12 07:52:00,